Regional Weather Roundup
Issued by NWS

Home | Current Version | Previous Version | Text Only | Print | Product List | Glossary On
Versions: 1 2 3 4 5 6 7 8 9 10 11 12 13 14 15 16 17 18 19 20 21 22 23 24 25 26 27 28 29 30 31 32 33 34 35 36 37 38 39 40 41 42 43 44 45 46 47 48 49 50
000
ASUS44 KMEG 311110
RWRTN
TENNESSEE HOURLY STATE WEATHER ROUNDUP
NATIONAL WEATHER SERVICE MEMPHIS TN
600 AM CDT THU JUL 31 2014

TNZ002-004-019-021-049-052-054-088>092-311200-
WEST TENNESSEE

CITY           SKY/WX    TMP DP  RH WIND       PRES   REMARKS
MEMPHIS INTL   CLOUDY    72  64  76 N3        30.09R
NWS MEMPHIS      N/A     69 N/A N/A MISG        N/A
JACKSON        CLOUDY    68  65  90 CALM      30.09R
DYERSBURG      CLOUDY    68  59  73 SW3       30.10R
UNION CITY     CLOUDY    66  66 100 CALM      30.08R
PARIS          CLOUDY    63  60  90 CALM      30.09S
LEXINGTON      CLOUDY    64  63  94 CALM      30.08R
SAVANNAH       CLOUDY    65  65 100 CALM      30.09R
$$

TNZ008-025-027-028-033-062-065-066-311200-
NORTH MIDDLE TENNESSEE

CITY           SKY/WX    TMP DP  RH WIND       PRES   REMARKS
NASHVILLE      MOCLDY    61  59  93 CALM      30.10R
DICKSON        PTCLDY    61  57  88 CALM      30.09S
PORTLAND       CLEAR     57  55  94 CALM      30.10R
CLARKSVILLE    FOG       58  56  93 CALM      30.09R VSB 3/4
LEBANON        PTCLDY    58  56  93 CALM      30.08S
SMYRNA         MOCLDY    60  60 100 CALM      30.10R
MURFREESBORO   PTCLDY    62  60  93 CALM      30.09S
COOKEVILLE     CLEAR     57  55  94 CALM      30.10S
LIVINGSTON       N/A     59  56  89 CALM      30.12
GALLATIN       PTCLDY    59  58  96 CALM      30.10S
CROSSVILLE     MOCLDY    60  55  83 CALM      30.14R
$$

TNZ061-075-076-078-094-096-097-311200-
SOUTH MIDDLE TENNESSEE

CITY           SKY/WX    TMP DP  RH WIND       PRES   REMARKS
LEWISBURG      PTCLDY    62  60  93 CALM      30.09R
FAYETTEVILLE   CLEAR     63  59  88 NE10G21   30.09S
TULLAHOMA      CLEAR     63  61  94 CALM      30.11R
WINCHESTER     CLEAR     61  61 100 CALM      30.10S
MCMINNVILLE    CLEAR     61  61 100 CALM      30.11R
COLUMBIA       CLEAR     64  63  94 CALM      30.08R
SHELBYVILLE    CLEAR     61  61 100 CALM      30.10S
$$

TNZ017-018-042-046-047-311200-
NORTHEAST TENNESSEE

CITY           SKY/WX    TMP DP  RH WIND       PRES   REMARKS
TRI CITIES     MOCLDY    56  54  93 CALM      30.15R
ELIZABETHTON   SUNNY     55  54  94 CALM        N/A
$$

TNZ012-013-036-069-073-074-311200-
CENTRAL EAST TENNESSEE

CITY           SKY/WX    TMP DP  RH WIND       PRES   REMARKS
KNOXVILLE      CLOUDY    60  58  92 NE5       30.10R
OAK RIDGE      FOG       62  61  96 CALM      30.12R VSB 3/4
GATLINBURG     SUNNY     57  55  94 CALM      30.11S
MORRISTOWN     SUNNY     59  57  94 E3        30.14R
$$

TNZ083-085-099-311200-
SOUTHEAST TENNESSEE

CITY           SKY/WX    TMP DP  RH WIND       PRES   REMARKS
CHATTANOOGA    CLOUDY    67  61  81 CALM      30.08R
$$

SKY/WX REPORTED AS FAIR MEANS FEW OR NO CLOUDS BELOW
12 THOUSAND FEET.



USA.gov is the U.S. government's official web portal to all federal, state and local government web resources and services.